Location: Bonny Doon Airfield
(37.0704°N, 122.1252°W)
Time: 19:25:55
(UTC-08:00)

BREEZE M DEB (TANK) - Visible Passes

Search period start: 08 February 2016 00:00
Search period end: 18 February 2016 00:00
Orbit: 322 x 13746 km, 49.6° (Epoch: 07 February)

Date Brightness Start Highest point End Pass type
(mag) Time Alt. Az. Time Alt. Az. Time Alt. Az.
08 Feb 9.0 00:40:23 12° S 00:40:23 12° S 00:45:00 10° S visible
08 Feb 6.3 21:32:23 10° WNW 22:08:22 - SE 21:33:10 17° WNW visible
09 Feb 4.5 18:56:40 10° NNW 18:59:43 29° NE 19:01:47 23° ENE visible
09 Feb 9.0 23:53:51 12° S 23:53:51 12° S 23:56:41 10° S visible
10 Feb 4.8 20:45:10 10° WNW 20:48:09 52° WNW 20:48:09 52° WNW visible
11 Feb 4.6 18:09:48 10° NNW 18:12:04 18° NNE 18:15:58 10° ENE visible
11 Feb 7.1 23:06:57 10° SSE 23:06:57 10° SSE 22:34:33 - W visible
12 Feb 4.0 19:57:57 10° NW 20:01:57 77° NE 20:03:16 60° ESE visible
13 Feb 6.2 21:47:17 10° WNW 22:19:37 - SSE 21:49:46 27° W visible
14 Feb 4.0 19:10:45 10° NW 19:14:13 51° NE 19:18:34 25° ESE visible
15 Feb 5.4 20:59:35 10° WNW 21:04:50 50° SW 21:05:16 49° SSW visible
16 Feb 4.2 18:23:34 10° NNW 18:26:29 32° NE 18:33:25 10° E visible
16 Feb 7.2 22:51:05 10° W 23:16:11 11° S 23:17:14 10° S visible
17 Feb 4.7 20:12:00 10° WNW 20:16:25 65° SW 20:21:16 34° SSE visible
